Tracking 23611 objects as of 18-Sep-2021
HD Live streaming from Space Station
objects crossing your sky now
Track INSPIRATION-4

STARLINK 1030

Track STARLINK 1030 now!
10-day predictions
STARLINK 1030 is classified as:


NORAD ID: 44735
Int'l Code: 2019-074Y
Perigee: 553.7 km
Apogee: 555.1 km
Inclination: 53.1 °
Period: 95.6 minutes
Semi major axis: 6925 km
RCS: Unknown
Launch date: November 11, 2019
Source: United States (US)
Launch site: AIR FORCE EASTERN TEST RANGE (AFETR)
aabbcc
Your satellite tracking list
Your tracking list is empty




NASA's NSSDC Master Catalog

Two Line Element Set (TLE):
1 44735U 19074Y   21260.75571343  .00000787  00000-0  71752-4 0  9998
2 44735  53.0561 341.6428 0001045 117.7415 242.3680 15.06379591102193
Source of the keplerian elements: AFSPC